Retour au catalogue

STARLINK-36829

ActifCommunicationsVLEO
NORAD 67957·PAYLOAD·🇺🇸 United States

Lancé Feb 24, 2026 depuis Vandenberg Space Force Base

Loading…

Prochains Passages (prochaines 24 heures)

TLE

FraisSource: CelesTrak SupGP

Époque: Sep 15, 2026, 03:27 UTC

1 67957C 26037AB  26258.14423611 -.00030071  00000+0 -10894-2 0  2581
2 67957  42.9994 200.8400 0001087 272.3381 126.0268 15.27587731    11

Suivez STARLINK-36829 en temps réel avec AllMySat

Download on the App Store